Location: Eurasberg
(48.3353°N, 11.0839°E)
Time: 06:23:32
(UTC+00:00)

SL-12 R/B(2) - Pass Details

Date: 18 January 2026
Orbit: 1171 x 2178 km, 63.4° (Epoch: 10 February)

Event Time Altitude Azimuth Distance (km) Brightness Sun altitude
Rises 05:33:19 0° 230° (SW) 4,211 6.5 -14.0°
Reaches altitude 10° 05:35:55 10° 232° (SW) 3,325 5.9 -13.6°
Maximum altitude 05:44:00 71° 317° (NW) 1,566 4.4 -12.3°
Drops below altitude 10° 05:54:02 10° 42° (NE) 4,070 7.0 -10.7°
Sets 05:57:34 0° 44° (NE) 5,205 7.6 -10.2°
